Back to catalog

NOAA 16 DEB

AliveSSO
NORAD 42372·DEBRIS·🇺🇸 United States

Launched Sep 21, 2000 from Vandenberg Space Force Base

Loading…

Next Passes (next 24 hours)

TLE

FreshSource: Space-Track

Epoch: Sep 13, 2026, 03:31 UTC

1 42372U 00055RQ  26256.14664329  .00003038  00000-0  10803-2 0  9992
2 42372  98.8796  22.4260 0010967  84.6884 275.5552 14.35088015539995

Track NOAA 16 DEB in real time with AllMySat

Download on the App Store